Location: Prescott
(34.5400°N, 112.4680°W)
Time: 19:10:24
(UTC-07:00)

Amateur Radio Satellites - All Passes

Search period start: 21 November 2017 18:40
Search period end: 22 November 2017 18:40
Location: Prescott, 34.5400°N, 112.4680°W

Satellite Date Start Highest point End Downlink Frequencies (MHz)
Time Altitude Azimuth
LilacSat-2 21 Nov 18:40:55 18:43:40 19° 265° (W) 18:46:27 437.200
KKS-1 21 Nov 18:41:30 18:44:59 23° 291° (WNW) 18:48:27 437.445
XW-2F 21 Nov 18:48:35 18:51:11 18° 265° (W) 18:53:46 145.980 - 146.000
CUTE 1.7 + AOD 2 21 Nov 18:52:55 18:57:07 88° 262° (W) 19:01:20 437.475
STARS 21 Nov 19:03:45 19:07:38 32° 289° (WNW) 19:11:30 437.465
ZACube-1 21 Nov 19:04:52 19:07:53 19° 70° (ENE) 19:10:51 437.345
UWE-3 21 Nov 19:14:24 19:18:43 49° 75° (ENE) 19:22:56 435.000/436.395/437.385
KAITUO 1B 21 Nov 19:17:43 19:18:12 10° 268° (W) 19:18:41 145.475/437.950
SEEDS 21 Nov 19:22:20 19:26:27 65° 260° (W) 19:30:36 437.485
SRMSAT 21 Nov 19:23:55 19:27:59 19° 179° (S) 19:32:03 437.500
AAUSAT CUBESAT 2 21 Nov 19:27:23 19:31:23 54° 75° (ENE) 19:35:25 437.432
JUGNU 21 Nov 19:29:48 19:30:54 10° 195° (SSW) 19:32:00 437.505
XW-2A 21 Nov 19:37:17 19:40:36 86° 259° (W) 19:43:56 145.665 - 145.685
CUTE-I 21 Nov 19:37:45 19:39:45 12° 268° (W) 19:41:46 437.470
STRAND 1 21 Nov 19:50:49 19:55:55 68° 102° (ESE) 20:00:59 437.568
AO-73 21 Nov 19:54:04 19:58:20 63° 76° (ENE) 20:02:32 145.935
CUBEBUG 2 21 Nov 19:55:33 19:59:35 29° 263° (W) 20:03:32 437.445
nSIGHT-1 21 Nov 20:02:05 20:05:10 44° 133° (SE) 20:08:14 .
HO-68 21 Nov 20:06:38 20:12:21 25° 264° (W) 20:18:06 435.675
Oscar 11 21 Nov 20:09:46 20:13:59 62° 76° (ENE) 20:18:14 .
RS-15 21 Nov 20:14:55 20:26:38 48° 309° (NW) 20:38:22 29.354- 29.394
FO-29 21 Nov 20:16:11 20:23:10 35° 95° (E) 20:29:38 435.910
SO-50 21 Nov 20:31:53 20:33:53 13° 108° (ESE) 20:35:53 436.795
ZACube-1 21 Nov 20:40:03 20:43:54 30° 262° (W) 20:47:42 437.345
ISS 21 Nov 20:48:00 20:51:15 64° 319° (NW) 20:54:29 437.550
EO-88 21 Nov 20:49:11 20:50:51 13° 69° (ENE) 20:52:30 145.990 - 145.960
Max Valier Satellite 21 Nov 20:51:13 20:53:57 20° 71° (ENE) 20:56:42 145.860
UWE-3 21 Nov 20:53:39 20:55:21 12° 267° (W) 20:57:01 435.000/436.395/437.385
SRMSAT 21 Nov 21:12:58 21:16:27 16° 189° (S) 21:19:56 437.500
NO-84 21 Nov 21:20:07 21:22:25 14° 31° (NNE) 21:24:42 435.350 FM
DELFI C3 21 Nov 21:26:49 21:30:46 82° 258° (WSW) 21:34:46 145.870
STRAND 1 21 Nov 21:32:23 21:34:27 12° 297° (WNW) 21:36:31 437.568
nSIGHT-1 21 Nov 21:39:20 21:41:32 17° 329° (NNW) 21:43:44 .
FO-29 21 Nov 22:00:53 22:08:07 43° 292° (WNW) 22:14:54 435.910
SO-50 21 Nov 22:09:30 22:13:50 51° 302° (WNW) 22:18:13 436.795
EO-88 21 Nov 22:20:56 22:24:09 30° 262° (W) 22:27:24 145.990 - 145.960
Max Valier Satellite 21 Nov 22:24:59 22:27:38 19° 265° (W) 22:30:18 145.860
UNISAT 6 21 Nov 22:29:52 22:34:06 70° 284° (WNW) 22:38:20 437.425
O/OREOS (USA 219) 21 Nov 22:30:48 22:33:02 13° 58° (ENE) 22:35:15 437.305
TIGRISAT 21 Nov 22:34:01 22:38:15 69° 284° (WNW) 22:42:27 435.000
RS-15 21 Nov 22:36:21 22:43:21 16° 338° (NNW) 22:50:16 29.354- 29.394
LO-87 21 Nov 22:42:35 22:46:02 44° 75° (ENE) 22:49:29 145.935 - 145.965
NO-84 21 Nov 22:56:03 23:00:21 83° 49° (NE) 23:04:32 435.350 FM
ESTCUBE 1 21 Nov 23:04:18 23:08:41 62° 75° (ENE) 23:13:07 437.505/2401.250
PRISM 21 Nov 23:15:22 23:19:29 63° 285° (WNW) 23:23:34 437.425
AIST 2D 21 Nov 23:15:36 23:18:50 33° 98° (E) 23:22:03 435.315
PCSat 21 Nov 23:21:55 23:26:18 26° 107° (ESE) 23:30:43 145.827
VELOX 1 21 Nov 23:23:37 23:25:56 14° 66° (ENE) 23:28:15 145.980
DUCHIFAT 1 21 Nov 23:37:08 23:39:22 14° 94° (E) 23:41:34 145.980
EO-79 21 Nov 23:44:27 23:47:51 24° 96° (E) 23:51:13 145.935-145.965
NANOSAT C BR1 21 Nov 23:47:14 23:50:32 22° 96° (E) 23:53:48 145.865
POLYITAN 1 21 Nov 23:59:36 00:03:28 36° 98° (E) 00:07:19 437.675
O/OREOS (USA 219) 22 Nov 00:08:21 00:12:45 51° 254° (WSW) 00:17:05 437.305
SPROUT 22 Nov 00:12:25 00:16:42 85° 77° (ENE) 00:21:00 437.525
QB50P2 22 Nov 00:22:44 00:26:57 83° 103° (ESE) 00:31:08 145.880/145.840
BUGSAT 1 22 Nov 00:27:21 00:28:33 11° 93° (E) 00:29:45 437.445
UKube-1 22 Nov 00:46:30 00:49:04 16° 67° (ENE) 00:51:38 .
AIST 2D 22 Nov 00:50:34 00:51:38 11° 291° (WNW) 00:52:41 435.315
RS-15 22 Nov 00:57:14 01:03:25 15° 17° (NNE) 01:09:27 29.354- 29.394
VELOX 1 22 Nov 00:57:41 01:01:55 45° 260° (W) 01:06:12 145.980
Oscar 19 22 Nov 01:02:29 01:06:07 19° 94° (E) 01:09:43 437.125/150
PCSat 22 Nov 01:04:32 01:09:28 36° 302° (WNW) 01:14:27 145.827
DUCHIFAT 1 22 Nov 01:11:17 01:15:06 36° 287° (WNW) 01:18:55 145.980
EO-79 22 Nov 01:20:12 01:23:28 22° 290° (WNW) 01:26:43 145.935-145.965
NANOSAT C BR1 22 Nov 01:22:46 01:26:07 24° 290° (WNW) 01:29:26 145.865
Gurwin Techsat 1B 22 Nov 01:33:59 01:38:32 28° 97° (E) 01:43:02 435.225
POLYITAN 1 22 Nov 01:36:29 01:38:54 15° 292° (WNW) 01:41:19 437.675
DX 1 22 Nov 01:40:10 01:44:31 72° 258° (WSW) 01:48:53 434.975-435.025
50 SAT 22 Nov 01:48:13 01:51:12 35° 261° (W) 01:54:12 437.505
BUGSAT 1 22 Nov 02:00:16 02:04:04 42° 287° (WNW) 02:07:50 437.445
BEESAT 22 Nov 02:01:35 02:04:18 15° 66° (ENE) 02:07:01 436.000
ITUPSAT 1 22 Nov 02:11:13 02:14:33 19° 67° (ENE) 02:17:51 437.325
MOZHAYETS 4 22 Nov 02:14:28 02:18:13 26° 70° (ENE) 02:21:58
UKube-1 22 Nov 02:20:42 02:24:43 38° 261° (W) 02:28:46 .
BEESAT 3 22 Nov 02:22:50 02:26:45 60° 116° (ESE) 02:30:41 437.485
nSIGHT-1 22 Nov 02:32:33 02:34:19 14° 29° (NNE) 02:36:03 .
Oscar 19 22 Nov 02:40:42 02:45:33 42° 288° (WNW) 02:50:23 437.125/150
ITAMSAT 1 22 Nov 02:58:16 03:00:24 12° 92° (E) 03:02:31 435.822/435.867
AO-7 22 Nov 03:05:08 03:12:19 31° 98° (E) 03:19:28 .
M-CUBED/EXP-1 PRIME 22 Nov 03:05:36 03:10:07 55° 104° (ESE) 03:14:40 437.505
RS-15 22 Nov 03:09:21 03:20:27 43° 49° (NE) 03:30:56 29.354- 29.394
Gurwin Techsat 1B 22 Nov 03:13:47 03:18:22 30° 291° (WNW) 03:22:56 435.225
ISS 22 Nov 03:18:51 03:21:42 27° 36° (NE) 03:24:32 437.550
AO-85 22 Nov 03:27:06 03:30:19 26° 112° (ESE) 03:33:36 145.980
BEESAT 2 22 Nov 03:36:31 03:40:30 71° 300° (WNW) 03:44:33 435.950
BEESAT 22 Nov 03:37:01 03:41:37 48° 260° (W) 03:46:14 436.000
ITUPSAT 1 22 Nov 03:47:35 03:52:02 38° 261° (W) 03:56:29 437.325
MOZHAYETS 4 22 Nov 03:51:31 03:55:15 25° 264° (W) 03:59:00
KKS-1 22 Nov 04:00:08 04:03:02 17° 67° (ENE) 04:05:57 437.445
BEESAT 3 22 Nov 04:03:17 04:04:39 11° 312° (NW) 04:05:59 437.485
CUBESAT XI-V 22 Nov 04:04:36 04:09:11 88° 257° (WSW) 04:13:48 437.345
nSIGHT-1 22 Nov 04:07:39 04:10:49 63° 225° (SW) 04:13:57 .
STARS 22 Nov 04:23:04 04:24:28 11° 65° (ENE) 04:25:54 437.465
ITAMSAT 1 22 Nov 04:35:04 04:40:13 63° 286° (WNW) 04:45:19 435.822/435.867
M-CUBED/EXP-1 PRIME 22 Nov 04:41:33 04:44:00 14° 298° (WNW) 04:46:29 437.505
DOVE 4 22 Nov 04:48:35 04:53:01 29° 95° (E) 04:57:13 437.250
ISS 22 Nov 04:55:26 04:58:04 22° 230° (SW) 05:00:40 437.550
AO-7 22 Nov 04:57:14 05:05:13 52° 294° (WNW) 05:13:12 .
AO-85 22 Nov 05:07:42 05:10:38 20° 308° (NW) 05:13:40 145.980
RS-15 22 Nov 05:21:57 05:33:02 53° 251° (WSW) 05:43:36 29.354- 29.394
YUBILEINY 22 Nov 05:25:50 05:34:16 56° 90° (E) 05:42:47 435.215
XW-2D 22 Nov 05:33:53 05:35:44 13° 93° (E) 05:37:35 145.860 - 145.880
KKS-1 22 Nov 05:35:07 05:39:15 37° 261° (W) 05:43:24 437.445
XW-2B 22 Nov 05:47:55 05:50:42 19° 95° (E) 05:53:29 145.730 - 145.750
STARS 22 Nov 05:55:55 06:00:16 57° 259° (W) 06:04:39 437.465
NUDT-PHONESAT 22 Nov 05:58:17 06:00:47 17° 95° (E) 06:03:17 437.300
XW-2C 22 Nov 06:12:51 06:16:30 42° 99° (E) 06:20:08 145.795 - 145.815
CUTE-I 22 Nov 06:14:54 06:19:49 36° 98° (E) 06:24:42 437.470
LilacSat-2 22 Nov 06:16:09 06:19:55 52° 100° (E) 06:23:40 437.200
XW-2F 22 Nov 06:22:26 06:26:10 53° 100° (E) 06:29:52 145.980 - 146.000
DOVE 4 22 Nov 06:26:17 06:30:30 26° 291° (WNW) 06:34:32 437.250
CUTE 1.7 + AOD 2 22 Nov 06:41:51 06:45:04 20° 95° (E) 06:48:16 437.475
SO-50 22 Nov 06:43:39 06:48:12 51° 58° (ENE) 06:52:47 436.795
KAITUO 1B 22 Nov 06:48:19 06:52:05 87° 287° (WNW) 06:55:52 145.475/437.950
STRAND 1 22 Nov 07:02:58 07:08:04 67° 74° (ENE) 07:13:11 437.568
XW-2D 22 Nov 07:06:32 07:09:57 32° 287° (WNW) 07:13:22 145.860 - 145.880
UWE-3 22 Nov 07:09:27 07:10:55 12° 92° (E) 07:12:24 435.000/436.395/437.385
SEEDS 22 Nov 07:09:48 07:13:22 26° 96° (E) 07:16:54 437.485
AAUSAT CUBESAT 2 22 Nov 07:15:04 07:16:19 11° 92° (E) 07:17:36 437.432
XW-2B 22 Nov 07:21:46 07:24:46 22° 288° (WNW) 07:27:46 145.730 - 145.750
YUBILEINY 22 Nov 07:24:17 07:31:25 28° 288° (WNW) 07:38:40 435.215
NUDT-PHONESAT 22 Nov 07:31:34 07:34:34 23° 288° (WNW) 07:37:33 437.300
HO-68 22 Nov 07:36:16 07:43:29 77° 104° (ESE) 07:50:38 435.675
AO-73 22 Nov 07:46:38 07:48:59 15° 94° (E) 07:51:20 145.935
CUBEBUG 2 22 Nov 07:49:09 07:53:19 75° 103° (ESE) 07:57:26 437.445
XW-2C 22 Nov 07:49:18 07:50:14 11° 293° (WNW) 07:51:09 145.795 - 145.815
CUTE-I 22 Nov 07:55:22 07:59:36 24° 293° (WNW) 08:03:50 437.470
Oscar 11 22 Nov 08:01:41 08:04:12 15° 93° (E) 08:06:43 .
FO-29 22 Nov 08:07:26 08:13:51 65° 73° (ENE) 08:21:07 435.910
PCSat 22 Nov 08:14:38 08:16:31 12° 47° (NE) 08:18:22 145.827
CUTE 1.7 + AOD 2 22 Nov 08:17:13 08:20:49 27° 289° (WNW) 08:24:26 437.475
SO-50 22 Nov 08:25:39 08:28:14 15° 252° (WSW) 08:30:49 436.795
FALCONSAT 3 22 Nov 08:27:24 08:30:17 22° 152° (SSE) 08:33:10 435.103
ZACube-1 22 Nov 08:30:58 08:35:05 62° 101° (E) 08:39:14 437.345
XW-2A 22 Nov 08:34:31 08:37:45 46° 285° (WNW) 08:41:00 145.665 - 145.685
UWE-3 22 Nov 08:43:38 08:47:33 42° 286° (WNW) 08:51:29 435.000/436.395/437.385
SEEDS 22 Nov 08:45:37 08:48:52 21° 290° (WNW) 08:52:05 437.485
STRAND 1 22 Nov 08:45:59 08:47:38 11° 269° (W) 08:49:16 437.568
AAUSAT CUBESAT 2 22 Nov 08:47:57 08:51:58 46° 285° (WNW) 08:55:58 437.432
DELFI C3 22 Nov 09:08:09 09:10:37 16° 94° (E) 09:13:04 145.870
AO-73 22 Nov 09:21:31 09:25:17 35° 287° (WNW) 09:29:05 145.935
UNISAT 6 22 Nov 09:24:28 09:29:00 64° 76° (ENE) 09:33:28 437.425
HO-68 22 Nov 09:25:50 09:30:23 18° 301° (WNW) 09:34:55 435.675
TIGRISAT 22 Nov 09:28:28 09:33:00 65° 75° (ENE) 09:37:27 435.000
Oscar 11 22 Nov 09:36:27 09:40:26 37° 287° (WNW) 09:44:25 .
EO-88 22 Nov 09:52:39 09:55:42 25° 97° (E) 09:58:46 145.990 - 145.960
FO-29 22 Nov 09:55:04 09:59:31 19° 271° (W) 10:04:18 435.910
PCSat 22 Nov 09:55:14 10:00:41 85° 65° (ENE) 10:06:06 145.827
Max Valier Satellite 22 Nov 09:56:55 10:00:27 44° 99° (E) 10:03:58 145.860
PRISM 22 Nov 10:00:34 10:04:34 52° 74° (ENE) 10:08:36 437.425
FALCONSAT 3 22 Nov 10:05:25 10:09:04 73° 166° (SSE) 10:12:45 435.103
EO-79 22 Nov 10:34:59 10:36:40 12° 66° (ENE) 10:38:21 145.935-145.965
NANOSAT C BR1 22 Nov 10:37:45 10:39:02 11° 66° (ENE) 10:40:19 145.865
DELFI C3 22 Nov 10:41:52 10:45:22 30° 288° (WNW) 10:48:50 145.870
BEESAT 3 22 Nov 10:44:11 10:45:57 13° 49° (NE) 10:47:42 437.485
POLYITAN 1 22 Nov 10:49:21 10:52:14 18° 69° (ENE) 10:55:07 437.675
ESTCUBE 1 22 Nov 11:01:13 11:04:12 17° 94° (E) 11:07:11 437.505/2401.250
QB50P2 22 Nov 11:11:36 11:15:30 37° 73° (ENE) 11:19:25 145.880/145.840
AIST 2D 22 Nov 11:18:41 11:22:02 51° 260° (W) 11:25:25 435.315
EO-88 22 Nov 11:26:51 11:29:06 16° 290° (WNW) 11:31:22 145.990 - 145.960
FALCONSAT 3 22 Nov 11:44:31 11:48:13 75° 3° (N) 11:51:55 435.103
LO-87 22 Nov 11:45:40 11:49:12 86° 283° (WNW) 11:52:42 145.935 - 145.965
BEESAT 2 22 Nov 11:57:47 12:00:57 22° 53° (NE) 12:04:05 435.950
DUCHIFAT 1 22 Nov 11:58:36 12:02:49 85° 254° (WSW) 12:07:03 145.980
AO-85 22 Nov 12:01:23 12:03:44 13° 48° (NE) 12:06:09 145.980
SPROUT 22 Nov 12:02:24 12:05:20 18° 95° (E) 12:08:13 437.525
EO-79 22 Nov 12:07:51 12:11:57 48° 260° (W) 12:16:04 145.935-145.965
NANOSAT C BR1 22 Nov 12:10:07 12:14:14 51° 260° (W) 12:18:22 145.865
Oscar 19 22 Nov 12:16:12 12:19:52 20° 67° (ENE) 12:23:31 437.125/150
BEESAT 3 22 Nov 12:19:58 12:23:46 49° 245° (WSW) 12:27:29 437.485
POLYITAN 1 22 Nov 12:23:59 12:27:45 31° 262° (W) 12:31:31 437.675
ESTCUBE 1 22 Nov 12:36:55 12:41:04 36° 288° (WNW) 12:45:12 437.505/2401.250
O/OREOS (USA 219) 22 Nov 12:38:14 12:42:06 27° 102° (ESE) 12:45:59 437.305
BUGSAT 1 22 Nov 12:45:32 12:49:43 77° 76° (ENE) 12:53:54 437.445
QB50P2 22 Nov 12:49:00 12:51:22 15° 266° (W) 12:53:46 145.880/145.840
VELOX 1 22 Nov 12:50:56 12:55:09 42° 99° (E) 12:59:21 145.980
Gurwin Techsat 1B 22 Nov 12:51:35 12:56:16 33° 70° (ENE) 13:00:57 435.225
50 SAT 22 Nov 13:10:27 13:11:20 11° 94° (E) 13:12:12 437.505
FALCONSAT 3 22 Nov 13:23:39 13:27:19 63° 196° (SSW) 13:30:58 435.103
DX 1 22 Nov 13:32:15 13:35:52 25° 97° (E) 13:39:27 434.975-435.025
BEESAT 2 22 Nov 13:35:15 13:38:37 26° 248° (WSW) 13:41:54 435.950
SPROUT 22 Nov 13:37:30 13:41:12 30° 288° (WNW) 13:44:53 437.525
AO-85 22 Nov 13:39:46 13:44:35 76° 242° (WSW) 13:49:43 145.980
JUGNU 22 Nov 13:48:21 13:50:55 13° 167° (SSE) 13:53:29 437.505
M-CUBED/EXP-1 PRIME 22 Nov 13:48:30 13:51:38 30° 67° (ENE) 13:55:00 437.505
Oscar 19 22 Nov 13:54:03 13:58:50 41° 261° (W) 14:03:40 437.125/150
AO-7 22 Nov 14:00:38 14:07:42 33° 61° (ENE) 14:14:47 .
NO-84 22 Nov 14:08:00 14:11:16 41° 127° (SE) 14:14:49 435.350 FM
UKube-1 22 Nov 14:10:46 14:14:53 42° 100° (E) 14:18:58 .
ITAMSAT 1 22 Nov 14:12:42 14:15:36 15° 64° (ENE) 14:18:29 435.822/435.867
O/OREOS (USA 219) 22 Nov 14:17:42 14:21:26 24° 297° (WNW) 14:25:10 437.305
VELOX 1 22 Nov 14:28:39 14:31:12 15° 293° (WNW) 14:33:43 145.980
Gurwin Techsat 1B 22 Nov 14:31:46 14:36:09 26° 264° (W) 14:40:33 435.225
50 SAT 22 Nov 14:40:43 14:43:25 25° 287° (WNW) 14:46:07 437.505
FALCONSAT 3 22 Nov 15:03:28 15:06:02 18° 209° (SSW) 15:08:37 435.103
DX 1 22 Nov 15:08:24 15:11:54 24° 291° (WNW) 15:15:23 434.975-435.025
M-CUBED/EXP-1 PRIME 22 Nov 15:24:31 15:26:11 13° 263° (W) 15:27:52 437.505
JUGNU 22 Nov 15:35:16 15:39:12 18° 177° (S) 15:43:06 437.505
BEESAT 22 Nov 15:40:21 15:45:00 54° 101° (E) 15:49:38 436.000
YUBILEINY 22 Nov 15:41:26 15:48:03 23° 70° (ENE) 15:54:36 435.215
NO-84 22 Nov 15:46:02 15:48:46 19° 325° (NW) 15:51:39 435.350 FM
UKube-1 22 Nov 15:48:12 15:50:29 14° 294° (WNW) 15:52:46 .
MOZHAYETS 4 22 Nov 15:48:48 15:53:24 84° 282° (WNW) 15:57:58
ITAMSAT 1 22 Nov 15:49:22 15:54:30 59° 259° (W) 15:59:41 435.822/435.867
DOVE 4 22 Nov 15:50:15 15:54:01 22° 67° (ENE) 15:57:54 437.250
ITUPSAT 1 22 Nov 15:51:03 15:55:48 70° 102° (ESE) 16:00:31 437.325
AO-7 22 Nov 15:52:08 16:00:04 51° 258° (WSW) 16:08:06 .
CUBESAT XI-V 22 Nov 16:04:50 16:08:57 30° 97° (E) 16:13:03 437.345
XW-2C 22 Nov 16:52:19 16:53:59 13° 68° (ENE) 16:55:39 145.795 - 145.815
LilacSat-2 22 Nov 16:55:43 16:57:58 15° 69° (ENE) 17:00:13 437.200
XW-2F 22 Nov 17:00:55 17:03:05 15° 69° (ENE) 17:05:15 145.980 - 146.000
BEESAT 22 Nov 17:19:57 17:22:15 14° 295° (WNW) 17:24:33 436.000
SRMSAT 22 Nov 17:23:07 17:26:31 16° 170° (S) 17:29:56 437.500
JUGNU 22 Nov 17:23:51 17:27:29 17° 187° (S) 17:31:06 437.505
KAITUO 1B 22 Nov 17:25:03 17:27:59 23° 72° (ENE) 17:30:57 145.475/437.950
DOVE 4 22 Nov 17:26:42 17:31:19 39° 263° (W) 17:36:12 437.250
RS-15 22 Nov 17:27:43 17:38:25 37° 105° (ESE) 17:49:08 29.354- 29.394
KKS-1 22 Nov 17:29:04 17:33:26 52° 100° (E) 17:37:44 437.445
ITUPSAT 1 22 Nov 17:31:59 17:32:58 11° 297° (WNW) 17:33:57 437.325
CUTE-I 22 Nov 17:33:06 17:38:06 42° 71° (ENE) 17:43:09 437.470
YUBILEINY 22 Nov 17:36:44 17:45:29 68° 268° (W) 17:54:11 435.215
CUBESAT XI-V 22 Nov 17:42:27 17:46:07 23° 291° (WNW) 17:49:46 437.345
XW-2D 22 Nov 17:43:27 17:47:09 65° 76° (ENE) 17:50:51 145.860 - 145.880
STARS 22 Nov 17:48:51 17:52:46 32° 98° (E) 17:56:40 437.465
XW-2B 22 Nov 17:58:18 18:02:01 81° 257° (WSW) 18:05:47 145.730 - 145.750
SEEDS 22 Nov 17:59:54 18:01:21 12° 66° (ENE) 18:02:47 437.485
HO-68 22 Nov 18:01:05 18:07:38 40° 67° (ENE) 18:14:12 435.675
NUDT-PHONESAT 22 Nov 18:05:57 18:09:34 84° 79° (ENE) 18:13:13 437.300
XW-2C 22 Nov 18:24:25 18:27:48 33° 262° (W) 18:31:13 145.795 - 145.815
LilacSat-2 22 Nov 18:28:45 18:31:58 27° 263° (W) 18:35:13 437.200
XW-2F 22 Nov 18:33:44 18:36:55 27° 263° (W) 18:40:08 145.980 - 146.000
